Showing default

O3B MPOWER F8, 62363

Orbit data source: Space-Track

O3B MPOWER F8, 62363 is a payload satellite owned by O3B SES (LU) that was launched on Tue, 17 Dec 2024 UTC via an FALCON 9 launch vehicle from the Air Force Eastern Test Range (AFETR). Payload-class satellites include a variety of spacecraft equipped with specific instruments for various scientific and technological missions. These include communications satellites like Starlink; space stations such as the ISS; scientific satellites like the Hubble; Earth observation satellites from companies like Planet Labs, Umbra, and HawkEye 360; GPS; miniature CubeSats for education and research; and military/defense satellites.

Loading next visibility...
Identifier
62363, 2024-244B
Orbit
Active
Country
Flag of LULU / SES
Related business
Manufacturer
Boeing/ES
Mission
Operational Commercial Communications
Bus & Motor
702X, PPS5000
Mass
1,700 kg wet, 1,700 kg dry
Launch date (UTC)
2024-12-17 (2 years ago)
Launch vehicle
FALCON 9
Launch site
Air Force Eastern Test Range (AFETR)
Object type
Payload
Rocket body
Debris
Shape & HBR
Box + 2 Pan, 13.5 m
Radar Cross Section
27.396 m², Large (>1 m²)

Expand to show TLE details & history
Last TLE update: 14 hours ago

TLE from 14 hours ago
0 O3B MPOWER F8
1 62363U 24244B   26171.24081174 -.00000024  00000-0  00000+0 0  9996
2 62363   0.0157 335.6790 0005944 102.2989 282.0863  5.00115152 21025
Epoch: 2026-06-20T05:46Z
TLE epoch observation values (Epoch: 2026-06-20T05:46:46.134Z)
Latitude
0.00666°
Longitude
4.8495°
Altitude
8,062.586 km
Speed
5.255 km/s
True Right ascension
23h 59m 59s
True Declination
0° 00' 24"
Sunlit
Object was in daylight at epoch
Visualization orbit readout
Latitude
Unknown
Longitude
Unknown
Altitude
Unknown
Speed
Unknown
Apparent Right ascension
Unknown
Apparent Declination
Unknown
Sunlit
N/A
Visualization observer readout
Local Sidereal Time
07:11:58
Azimuth
Unknown
Elevation
Unknown
Doppler factor
Unknown
Orbital elements
Apogee altitude
8,077.543 km
Perigee altitude
8,060.368 km
Semi-major axis
14,447.092 km
Eccentricity
0.00059
Inclination
0.0157°
RAAN
335.679°
Arg. of periapsis
102.2989°
True anomaly
282.01969°
Mean anomaly
282.0863°
Eccentric anomaly
282.05299°
Mean motion
1.24989 °/min
Orbital period
288.02 mins
BSTAR
0
Loading maneuver chart data...
Computing Atmospheric mass density...
Loading historical data...
Loading historical data...
Loading historical data...
Loading historical data...
Loading historical data...
Loading historical data...
Loading historical data...
Other satellites on launch #244 in the year 2024 (2024-12-17 UTC)

Documentation

Showing up to 5 results
|